Weather History for Pratt, KS

Change the Weather History Date:

Tuesday, March 4, 2014

  Actual Average (KP28) Record (KP28)
Temperature  
Mean Temperature 22 °F 43 °F  
Max Temperature 33 °F 56 °F 86 °F (1910)
Min Temperature 10 °F 31 °F 1 °F (1960)
Degree Days  
Heating Degree Days 44 22  
Month to date heating degree days 90  
Since 1 July heating degree days 3619  
Cooling Degree Days 0 0  
Month to date cooling degree days 0  
Year to date cooling degree days 0  
Moisture  
Dew Point 17 °F    
Average Humidity 74    
Maximum Humidity 87    
Minimum Humidity 59    
Precipitation  
Precipitation 0.00 in 0.06 in 0.91 in (1957)
Month to date precipitation 0.25  
Year to date precipitation 2.00  
Snow  
Snow 0.00 in 0.00 in - ()
Month to date snowfall 0.0  
Since 1 July snowfall 8.4  
Snow Depth -    
Sea Level Pressure  
Sea Level Pressure 29.99 in    
Wind  
Wind Speed 11 mph (South)    
Max Wind Speed 17 mph    
Max Gust Speed 18 mph    
Visibility 10 miles    
Events      
T = Trace of Precipitation, MM = Missing Value Source: NWS Daily Summary

Daily Weather History Graph

Daily Weather History Graph

Search for Another Location

Airport:

Trip Planner

Search our weather history database for the weather conditions in past years. The results will help you decide how hot, cold, wet, or windy it might be!

Date:

Astronomy

Mar. 04, 2014 Rise Set
Actual Time 7:02 AM CST 6:31 PM CST
Civil Twilight 6:35 AM CST 6:57 PM CST
Nautical Twilight 6:05 AM CST 7:28 PM CST
Astronomical Twilight 5:35 AM CST 7:58 PM CST
Moon 8:53 AM CST (3/4) 10:35 PM CST (3/4)
Length of Visible Light 12h 22m
Length of Day
11h 29m
Waxing Crescent, 15% of the Moon is Illuminated
Mar 4
Waxing Crescent
Mar 8
First Quarter
Mar 16
Full
Mar 23
Last Quarter
Mar 30
New

Hourly Weather History & Observations

Time (CST) Temp. Windchill Dew Point Humidity Pressure Visibility Wind Dir Wind Speed Gust Speed Precip Events Conditions
12:15 AM 10.4 °F -4.8 °F 1.4 °F 67% 30.13 in 10.0 mi South 12.7 mph - N/A   Clear
12:35 AM 10.4 °F -5.4 °F 1.4 °F 67% 30.13 in 10.0 mi SSW 13.8 mph - N/A   Clear
12:55 AM 10.4 °F -4.8 °F 1.4 °F 67% 30.12 in 10.0 mi SSW 12.7 mph - N/A   Clear
1:15 AM 10.4 °F -4.8 °F 3.2 °F 73% 30.12 in 10.0 mi SSW 12.7 mph - N/A   Clear
1:35 AM 10.4 °F -4.1 °F 3.2 °F 73% 30.11 in 10.0 mi SSW 11.5 mph - N/A   Clear
1:55 AM 10.4 °F -4.8 °F 3.2 °F 73% 30.10 in 10.0 mi South 12.7 mph - N/A   Clear
2:15 AM 10.4 °F -4.8 °F 3.2 °F 73% 30.10 in 10.0 mi South 12.7 mph - N/A   Clear
2:35 AM 10.4 °F -4.1 °F 3.2 °F 73% 30.09 in 10.0 mi South 11.5 mph - N/A   Clear
2:55 AM 10.4 °F -4.8 °F 3.2 °F 73% 30.08 in 10.0 mi South 12.7 mph - N/A   Clear
3:15 AM 10.4 °F -3.3 °F 5.0 °F 79% 30.07 in 10.0 mi South 10.4 mph - N/A   Clear
3:35 AM 10.4 °F -3.3 °F 5.0 °F 79% 30.07 in 10.0 mi South 10.4 mph - N/A   Clear
3:55 AM 10.4 °F -4.1 °F 5.0 °F 79% 30.05 in 10.0 mi South 11.5 mph - N/A   Clear
4:15 AM 10.4 °F -4.8 °F 5.0 °F 79% 30.05 in 10.0 mi South 12.7 mph - N/A   Clear
4:35 AM 10.4 °F -4.1 °F 5.0 °F 79% 30.04 in 10.0 mi SSW 11.5 mph - N/A   Clear
4:55 AM 10.4 °F -5.4 °F 5.0 °F 79% 30.03 in 10.0 mi SSW 13.8 mph - N/A   Clear
5:15 AM 10.4 °F -7.2 °F 5.0 °F 79% 30.03 in 10.0 mi SSW 17.3 mph - N/A   Clear
5:35 AM 10.4 °F -5.4 °F 5.0 °F 79% 30.02 in 10.0 mi SSW 13.8 mph - N/A   Clear
5:55 AM 10.4 °F -6.6 °F 5.0 °F 79% 30.01 in 10.0 mi SSW 16.1 mph - N/A   Clear
6:15 AM 12.2 °F -4.8 °F 6.8 °F 79% 30.00 in 10.0 mi SSW 17.3 mph - N/A   Clear
6:35 AM 12.2 °F -1.8 °F 6.8 °F 79% 30.00 in 10.0 mi SSW 11.5 mph - N/A   Clear
6:55 AM 12.2 °F -1.0 °F 6.8 °F 79% 29.99 in 10.0 mi SSW 10.4 mph - N/A   Clear
7:15 AM 14.0 °F 0.5 °F 8.6 °F 79% 29.98 in 10.0 mi SSW 11.5 mph - N/A   Clear
7:35 AM 14.0 °F 3.9 °F 8.6 °F 79% 29.99 in 10.0 mi SSW 6.9 mph - N/A   Clear
7:55 AM 14.0 °F - 8.6 °F 79% 30.01 in 10.0 mi Calm Calm - N/A   Clear
8:15 AM 15.8 °F - 8.6 °F 73% 30.00 in 10.0 mi Calm Calm - N/A   Clear
8:35 AM 17.6 °F 10.7 °F 10.4 °F 73% 30.00 in 10.0 mi SSE 4.6 mph - N/A   Clear
8:55 AM 19.4 °F 9.5 °F 10.4 °F 68% 30.01 in 10.0 mi South 8.1 mph - N/A   Clear
9:15 AM 19.4 °F 10.4 °F 10.4 °F 68% 30.00 in 10.0 mi South 6.9 mph - N/A   Clear
9:35 AM 19.4 °F 12.8 °F 12.2 °F 74% 30.01 in 10.0 mi SSE 4.6 mph - N/A   Clear
9:55 AM 21.2 °F 12.6 °F 12.2 °F 68% 30.01 in 10.0 mi SSE 6.9 mph - N/A   Clear
10:15 AM 23.0 °F 14.7 °F 12.2 °F 63% 30.02 in 10.0 mi SSE 6.9 mph - N/A   Clear
10:35 AM 23.0 °F 14.7 °F 14.0 °F 68% 30.01 in 10.0 mi SE 6.9 mph - N/A   Clear
10:55 AM 24.8 °F 17.9 °F 14.0 °F 64% 30.01 in 10.0 mi SSE 5.8 mph - N/A   Clear
11:15 AM 26.6 °F 20.0 °F 14.0 °F 59% 30.00 in 10.0 mi SSE 5.8 mph - N/A   Clear
11:35 AM 28.4 °F 21.2 °F 15.8 °F 59% 30.00 in 10.0 mi SSE 6.9 mph - N/A   Clear
11:55 AM 28.4 °F 22.2 °F 17.6 °F 64% 30.00 in 10.0 mi South 5.8 mph - N/A   Clear
12:15 PM 30.2 °F 25.4 °F 17.6 °F 60% 30.00 in 10.0 mi SSE 4.6 mph - N/A   Clear
12:35 PM 32.0 °F 25.6 °F 19.4 °F 60% 29.99 in 10.0 mi SSE 6.9 mph - N/A   Clear
12:55 PM 32.0 °F 26.4 °F 19.4 °F 60% 29.99 in 10.0 mi South 5.8 mph - N/A   Clear
1:15 PM 32.0 °F 26.4 °F 21.2 °F 64% 29.98 in 10.0 mi SSE 5.8 mph - N/A   Clear
1:35 PM 33.8 °F 27.0 °F 21.2 °F 60% 29.96 in 10.0 mi SE 8.1 mph - N/A   Clear
1:55 PM 32.0 °F 24.2 °F 21.2 °F 64% 29.96 in 10.0 mi SE 9.2 mph - N/A   Clear
2:15 PM 32.0 °F 24.2 °F 21.2 °F 64% 29.94 in 10.0 mi SE 9.2 mph - N/A   Clear
2:35 PM 32.0 °F 23.6 °F 23.0 °F 69% 29.93 in 10.0 mi SE 10.4 mph - N/A   Clear
2:55 PM 32.0 °F 22.1 °F 23.0 °F 69% 29.93 in 10.0 mi SE 13.8 mph 17.3 mph N/A   Clear
3:15 PM 33.8 °F 26.4 °F 23.0 °F 65% 29.93 in 10.0 mi SSE 9.2 mph - N/A   Clear
3:35 PM 33.8 °F 27.0 °F 24.8 °F 70% 29.93 in 10.0 mi SE 8.1 mph - N/A   Clear
3:55 PM 33.8 °F 25.8 °F 24.8 °F 70% 29.92 in 10.0 mi SSE 10.4 mph - N/A   Clear
4:15 PM 33.8 °F 25.3 °F 26.6 °F 75% 29.92 in 10.0 mi SSE 11.5 mph 16.1 mph N/A   Clear
4:35 PM 33.8 °F 25.3 °F 26.6 °F 75% 29.91 in 10.0 mi SSE 11.5 mph - N/A   Clear
4:55 PM 33.8 °F 25.3 °F 26.6 °F 75% 29.90 in 10.0 mi SSE 11.5 mph - N/A   Clear
5:15 PM 33.8 °F 26.4 °F 26.6 °F 75% 29.92 in 10.0 mi SSE 9.2 mph - N/A   Clear
5:35 PM 33.8 °F 25.8 °F 26.6 °F 75% 29.91 in 10.0 mi SSE 10.4 mph - N/A   Clear
5:55 PM 33.8 °F 27.7 °F 26.6 °F 75% 29.92 in 10.0 mi SSE 6.9 mph - N/A   Clear
6:15 PM 32.0 °F 24.8 °F 26.6 °F 80% 29.91 in 10.0 mi SSE 8.1 mph - N/A   Clear
6:35 PM 32.0 °F 24.2 °F 28.4 °F 87% 29.92 in 10.0 mi SSE 9.2 mph - N/A   Clear
6:55 PM 32.0 °F 24.8 °F 28.4 °F 87% 29.92 in 10.0 mi SSE 8.1 mph - N/A   Clear
7:15 PM 32.0 °F 23.6 °F 28.4 °F 87% 29.92 in 10.0 mi SE 10.4 mph - N/A   Clear
7:35 PM 32.0 °F 24.8 °F 28.4 °F 87% 29.92 in 10.0 mi SE 8.1 mph - N/A   Clear
7:55 PM 32.0 °F 24.2 °F 28.4 °F 87% 29.92 in 10.0 mi SE 9.2 mph - N/A   Clear
8:15 PM 32.0 °F 24.2 °F 28.4 °F 87% 29.92 in 10.0 mi SSE 9.2 mph - N/A   Clear
8:35 PM 32.0 °F 23.6 °F 28.4 °F 87% 29.92 in 10.0 mi SSE 10.4 mph - N/A   Clear
8:55 PM 32.0 °F 23.6 °F 28.4 °F 87% 29.93 in 10.0 mi SSE 10.4 mph - N/A   Clear
9:15 PM 32.0 °F 23.0 °F 28.4 °F 87% 29.93 in 10.0 mi SSE 11.5 mph - N/A   Clear
9:35 PM 33.8 °F 24.8 °F 28.4 °F 81% 29.93 in 10.0 mi SSE 12.7 mph - N/A   Clear
9:55 PM 33.8 °F 24.3 °F 28.4 °F 81% 29.93 in 10.0 mi South 13.8 mph - N/A   Clear
10:15 PM 33.8 °F 24.8 °F 28.4 °F 81% 29.93 in 10.0 mi South 12.7 mph - N/A   Clear
10:35 PM 33.8 °F 24.8 °F 28.4 °F 81% 29.93 in 10.0 mi SSE 12.7 mph 18.4 mph N/A   Clear
10:55 PM 33.8 °F 23.9 °F 28.4 °F 81% 29.93 in 10.0 mi South 15.0 mph - N/A   Clear
11:15 PM 33.8 °F 23.9 °F 28.4 °F 81% 29.93 in 10.0 mi South 15.0 mph - N/A   Clear
11:35 PM 33.8 °F 24.3 °F 28.4 °F 81% 29.93 in 10.0 mi South 13.8 mph - N/A   Clear
11:55 PM 33.8 °F 24.8 °F 28.4 °F 81% 29.92 in 10.0 mi South 12.7 mph - N/A   Clear